KF0DL Weather Reports


time (UTC)temp
C
wind
direction
speed
KPH
gust
KPH
rain 1hr
cm
rain 24hr
cm
rain mn
cm
humidity
%
barometer
mb
20260504050325 13 328 14.5 32.2 0.00 0.00 0.00 48 1004.8
20260504045829 14 320 22.5 40.2 0.00 0.00 0.00 45 1004.8
20260504045337 16 3 19.3 32.2 0.00 0.00 0.00 35 1002.3
20260504044825 17 198 14.5 22.5 0.00 0.00 0.00 26 1002.3
20260504044332 17 241 14.5 20.9 0.00 0.00 0.00 26 1002.3
20260504043826 17 206 6.4 19.3 0.00 0.00 0.00 26 1002.2
20260504043333 17 239 8.0 22.5 0.00 0.00 0.00 26 1002.2
20260504042819 17 248 9.7 27.4 0.00 0.00 0.00 26 1002.3
20260504042326 17 222 11.3 27.4 0.00 0.00 0.00 27 1002.3
20260504041837 17 264 12.9 20.9 0.00 0.00 0.00 27 1002.3
20260504041322 16 232 11.3 20.9 0.00 0.00 0.00 28 1002.7
20260504040831 17 243 8.0 20.9 0.00 0.00 0.00 28 1002.7
20260504040339 17 254 11.3 20.9 0.00 0.00 0.00 28 1002.7
20260504035825 17 212 9.7 17.7 0.00 0.00 0.00 28 1002.8
20260504035337 17 224 8.0 20.9 0.00 0.00 0.00 28 1002.8
20260504034824 17 257 11.3 20.9 0.00 0.00 0.00 29 1002.8
20260504034331 17 226 9.7 17.7 0.00 0.00 0.00 29 1002.8
20260504033838 17 205 8.0 25.7 0.00 0.00 0.00 30 1003.0
20260504033326 17 250 11.3 25.7 0.00 0.00 0.00 30 1003.0
20260504032832 17 250 11.3 22.5 0.00 0.00 0.00 30 1003.0
20260504032319 17 251 8.0 17.7 0.00 0.00 0.00 30 1003.0
20260504031828 17 248 9.7 20.9 0.00 0.00 0.00 29 1003.0
20260504031334 17 254 12.9 20.9 0.00 0.00 0.00 29 1003.0
20260504030825 17 250 6.4 22.5 0.00 0.00 0.00 29 1002.8
20260504030333 17 251 11.3 22.5 0.00 0.00 0.00 29 1002.8
20260504025821 17 237 11.3 19.3 0.00 0.00 0.00 29 1003.2
20260504025327 18 236 9.7 19.3 0.00 0.00 0.00 28 1003.2
20260504024834 18 256 8.0 16.1 0.00 0.00 0.00 28 1003.2
20260504024321 18 248 8.0 16.1 0.00 0.00 0.00 28 1003.3
20260504023830 18 232 9.7 16.1 0.00 0.00 0.00 28 1003.3
20260504023338 18 270 6.4 12.9 0.00 0.00 0.00 28 1003.3
20260504022824 18 253 6.4 11.3 0.00 0.00 0.00 27 1003.3
20260504022334 19 253 6.4 12.9 0.00 0.00 0.00 26 1003.3
20260504021826 19 247 3.2 12.9 0.00 0.00 0.00 26 1003.3
20260504021332 20 232 6.4 12.9 0.00 0.00 0.00 26 1003.3
20260504020838 20 243 8.0 12.9 0.00 0.00 0.00 25 1003.8
20260504020326 20 247 8.0 20.9 0.00 0.00 0.00 25 1003.8
20260504015833 20 213 9.7 20.9 0.00 0.00 0.00 24 1003.8
20260504015320 20 251 9.7 16.1 0.00 0.00 0.00 24 1003.8
20260504014827 20 213 4.8 16.1 0.00 0.00 0.00 24 1003.8
20260504014335 20 236 6.4 17.7 0.00 0.00 0.00 23 1003.8
20260504013823 21 256 6.4 25.7 0.00 0.00 0.00 23 1003.9
20260504013334 21 239 9.7 25.7 0.00 0.00 0.00 23 1003.9
20260504012821 21 215 4.8 22.5 0.00 0.00 0.00 22 1004.1
20260504012328 21 241 8.0 22.5 0.00 0.00 0.00 22 1004.1
20260504011834 21 274 11.3 20.9 0.00 0.00 0.00 22 1004.1
20260504011321 21 265 8.0 14.5 0.00 0.00 0.00 22 1004.5
20260504010831 22 250 9.7 16.1 0.00 0.00 0.00 21 1004.5
20260504010338 22 243 6.4 17.7 0.00 0.00 0.00 21 1004.5
20260504005826 22 233 4.8 20.9 0.00 0.00 0.00 20 1004.5
20260504005334 22 281 8.0 19.3 0.00 0.00 0.00 20 1004.7
20260504004825 22 258 3.2 20.9 0.00 0.00 0.00 20 1004.7
20260504004333 22 291 12.9 22.5 0.00 0.00 0.00 20 1004.7
20260504003820 22 271 3.2 22.5 0.00 0.00 0.00 19 1005.2
20260504003327 22 254 11.3 19.3 0.00 0.00 0.00 19 1005.2
20260504002834 22 315 9.7 20.9 0.00 0.00 0.00 19 1005.2
20260504002320 22 246 11.3 25.7 0.00 0.00 0.00 18 1005.4
20260504001826 22 223 8.0 25.7 0.00 0.00 0.00 18 1005.4
20260504001333 22 264 8.0 29.0 0.00 0.00 0.00 18 1005.4
20260504000821 22 206 11.3 27.4 0.00 0.00 0.00 18 1006.1
20260504000328 22 241 8.0 25.7 0.00 0.00 0.00 19 1006.1
20260503235820 22 256 8.0 25.7 0.00 0.00 0.00 18 1006.5
20260503235326 22 234 9.7 32.2 0.00 0.00 0.00 18 1006.5
20260503234836 22 254 12.9 32.2 0.00 0.00 0.00 18 1006.5
20260503234321 22 281 9.7 22.5 0.00 0.00 0.00 18 1006.7
20260503233829 22 260 14.5 27.4 0.00 0.00 0.00 18 1006.7
20260503233337 22 253 11.3 27.4 0.00 0.00 0.00 18 1006.7
20260503232821 22 253 6.4 25.7 0.00 0.00 0.00 18 1007.0
20260503232330 22 195 6.4 29.0 0.00 0.00 0.00 18 1007.0
20260503231837 22 234 12.9 29.0 0.00 0.00 0.00 18 1007.0
20260503231327 22 319 16.1 25.7 0.00 0.00 0.00 17 1007.0
20260503230833 23 234 12.9 20.9 0.00 0.00 0.00 17 1007.0
20260503230321 23 246 9.7 20.9 0.00 0.00 0.00 17 1007.0
20260503225828 23 353 6.4 32.2 0.00 0.00 0.00 17 1007.0
20260503225336 23 268 20.9 32.2 0.00 0.00 0.00 16 1007.0
20260503224824 23 237 8.0 27.4 0.00 0.00 0.00 17 1007.0
20260503224330 24 205 16.1 33.8 0.00 0.00 0.00 16 1007.0
20260503223838 24 232 11.3 33.8 0.00 0.00 0.00 16 1007.3
20260503223325 24 291 11.3 22.5 0.00 0.00 0.00 16 1007.3
20260503222833 24 282 11.3 22.5 0.00 0.00 0.00 16 1007.3
20260503222325 24 223 8.0 29.0 0.00 0.00 0.00 16 1007.6
20260503221834 23 260 12.9 30.6 0.00 0.00 0.00 16 1007.6
20260503221320 23 213 17.7 30.6 0.00 0.00 0.00 16 1007.6
20260503220828 23 250 9.7 27.4 0.00 0.00 0.00 16 1007.6
20260503220335 23 267 12.9 27.4 0.00 0.00 0.00 16 1007.6
20260503215821 23 243 9.7 29.0 0.00 0.00 0.00 16 1007.8
20260503215331 23 246 14.5 30.6 0.00 0.00 0.00 17 1007.8
20260503214819 23 232 17.7 30.6 0.00 0.00 0.00 17 1007.8
20260503214329 23 230 16.1 33.8 0.00 0.00 0.00 17 1007.8
20260503213821 23 244 17.7 33.8 0.00 0.00 0.00 17 1008.3
20260503213327 23 304 17.7 30.6 0.00 0.00 0.00 17 1008.3
20260503212834 23 246 8.0 40.2 0.00 0.00 0.00 17 1008.3
20260503212323 23 224 24.1 40.2 0.00 0.00 0.00 18 1008.7
20260503211831 23 268 14.5 30.6 0.00 0.00 0.00 18 1008.7
20260503211338 23 256 17.7 29.0 0.00 0.00 0.00 17 1008.7
20260503210825 23 258 11.3 24.1 0.00 0.00 0.00 18 1009.0
20260503210332 23 243 11.3 29.0 0.00 0.00 0.00 17 1009.0
20260503205820 23 239 12.9 29.0 0.00 0.00 0.00 17 1009.5
20260503205332 23 239 12.9 30.6 0.00 0.00 0.00 17 1009.5
20260503204837 23 330 9.7 30.6 0.00 0.00 0.00 17 1009.5
20260503204325 23 257 11.3 32.2 0.00 0.00 0.00 18 1009.5
20260503203834 23 261 19.3 32.2 0.00 0.00 0.00 18 1009.8
20260503203321 23 241 16.1 30.6 0.00 0.00 0.00 18 1009.8
20260503202828 23 313 3.2 25.7 0.00 0.00 0.00 18 1009.8
20260503202335 23 306 9.7 25.7 0.00 0.00 0.00 18 1010.4
20260503201823 23 336 12.9 25.7 0.00 0.00 0.00 17 1010.4
20260503201330 22 209 17.7 25.7 0.00 0.00 0.00 17 1010.4
20260503200820 22 229 12.9 27.4 0.00 0.00 0.00 18 1010.6
20260503200327 22 347 16.1 25.7 0.00 0.00 0.00 18 1010.6
20260503195827 22 318 12.9 20.9 0.00 0.00 0.00 18 1011.0
20260503195340 22 241 6.4 25.7 0.00 0.00 0.00 18 1011.0
20260503194820 22 284 19.3 25.7 0.00 0.00 0.00 18 1011.0
20260503194328 22 237 4.8 29.0 0.00 0.00 0.00 19 1011.0
20260503193835 22 258 14.5 29.0 0.00 0.00 0.00 18 1011.2
20260503193321 22 220 9.7 25.7 0.00 0.00 0.00 19 1011.2
20260503192828 22 37 8.0 29.0 0.00 0.00 0.00 19 1011.2
20260503192336 22 281 12.9 29.0 0.00 0.00 0.00 18 1011.6
20260503191823 22 243 16.1 22.5 0.00 0.00 0.00 20 1011.6
20260503191334 22 223 9.7 32.2 0.00 0.00 0.00 20 1011.6
20260503190822 22 312 6.4 32.2 0.00 0.00 0.00 20 1011.7
20260503190330 21 258 11.3 27.4 0.00 0.00 0.00 18 1011.7
20260503185837 21 244 12.9 27.4 0.00 0.00 0.00 20 1011.7
20260503185324 21 234 12.9 30.6 0.00 0.00 0.00 20 1012.3
20260503184831 21 244 19.3 30.6 0.00 0.00 0.00 20 1012.3
20260503184337 21 210 11.3 25.7 0.00 0.00 0.00 21 1012.3
20260503183823 21 244 11.3 25.7 0.00 0.00 0.00 22 1012.6
20260503183329 21 191 9.7 33.8 0.00 0.00 0.00 21 1012.6
20260503182819 21 253 17.7 33.8 0.00 0.00 0.00 21 1013.3
20260503182329 21 256 8.0 30.6 0.00 0.00 0.00 21 1013.3
20260503181835 20 275 12.9 30.6 0.00 0.00 0.00 21 1013.3
20260503181321 20 200 12.9 27.4 0.00 0.00 0.00 22 1013.4
20260503180826 20 257 12.9 22.5 0.00 0.00 0.00 21 1013.4
20260503180333 20 360 8.0 22.5 0.00 0.00 0.00 22 1013.4
20260503175820 20 278 9.7 14.5 0.00 0.00 0.00 23 1013.7
20260503175327 20 270 6.4 27.4 0.00 0.00 0.00 23 1013.7
20260503174835 20 291 9.7 27.4 0.00 0.00 0.00 22 1013.7
20260503174321 20 205 4.8 17.7 0.00 0.00 0.00 23 1014.2
20260503173835 20 309 11.3 29.0 0.00 0.00 0.00 23 1014.2
20260503173323 20 254 3.2 29.0 0.00 0.00 0.00 24 1014.2
20260503172831 20 226 4.8 16.1 0.00 0.00 0.00 24 1014.2
20260503172338 20 226 6.4 22.5 0.00 0.00 0.00 23 1014.7
20260503171825 19 208 8.0 22.5 0.00 0.00 0.00 23 1014.7
20260503170839 20 322 9.7 16.1 0.00 0.00 0.00 22 1014.7
20260503170326 20 203 4.8 12.9 0.00 0.00 0.00 24 1014.7
20260503150824 13 296 8.0 17.7 0.00 0.00 0.00 40 1016.8
20260503150331 12 250 9.7 19.3 0.00 0.00 0.00 41 1016.8
20260503131332 6 224 3.2 12.9 0.00 0.00 0.00 53 1017.4
20260503130838 6 251 4.8 12.9 0.00 0.00 0.00 53 1017.1
20260503130325 6 263 4.8 8.0 0.00 0.00 0.00 53 1017.1
20260503110819 3 323 3.2 4.8 0.00 0.00 0.00 60 1016.9
20260503110327 3 323 3.2 4.8 0.00 0.00 0.00 60 1016.9
20260503090328 5 309 0.0 3.2 0.00 0.00 0.00 56 1017.6
20260503081328 6 350 1.6 4.8 0.00 0.00 0.00 55 1017.4
20260503080836 6 319 1.6 4.8 0.00 0.00 0.00 55 1017.3
20260503080324 6 319 1.6 4.8 0.00 0.00 0.00 54 1017.3
20260503072833 7 11 3.2 4.8 0.00 0.00 0.00 53 1017.5
20260503072325 7 344 3.2 4.8 0.00 0.00 0.00 52 1017.2
20260503071833 7 308 1.6 4.8 0.00 0.00 0.00 52 1017.2
20260503071338 8 3 3.2 8.0 0.00 0.00 0.00 52 1017.2
20260503070826 8 357 4.8 8.0 0.00 0.00 0.00 51 1017.2
20260503070333 8 319 3.2 6.4 0.00 0.00 0.00 51 1017.2
20260503060324 10 291 3.2 11.3 0.00 0.00 0.00 51 1017.1
20260503054830 10 28 3.2 11.3 0.00 0.00 0.00 51 1016.9
20260503054337 10 66 1.6 9.7 0.00 0.00 0.00 52 1016.9
20260503053821 10 31 1.6 9.7 0.00 0.00 0.00 52 1017.0
20260503053328 10 295 3.2 9.7 0.00 0.00 0.00 52 1017.0
20260503052836 10 343 1.6 8.0 0.00 0.00 0.00 53 1017.0